owner,sensor,date,latitude,longitude,sea_surface_height_above_sea_level,qcFlag 
TCOON,ioos:station:TCOON:006:1,2014-06-01T00:00:00Z,27.8217,-97.2040,1.07,1111122 
TCOON,ioos:station:TCOON:006:1,2014-06-01T01:00:00Z,27.8217,-97.2040,1.055,1111122 
TCOON,ioos:station:TCOON:006:1,2014-06-01T01:54:00Z,27.8217,-97.2040,1.04,1111122 
TCOON,ioos:station:TCOON:006:1,2014-06-01T03:00:00Z,27.8217,-97.2040,1.016,1111122 
TCOON,ioos:station:TCOON:006:1,2014-06-01T04:00:00Z,27.8217,-97.2040,0.99,1111122 
TCOON,ioos:station:TCOON:006:1,2014-06-01T05:00:00Z,27.8217,-97.2040,0.967,1111122 
TCOON,ioos:station:TCOON:006:1,2014-06-01T06:30:00Z,27.8217,-97.2040,0.93,1111122 
TCOON,ioos:station:TCOON:006:1,2014-06-01T07:00:00Z,27.8217,-97.2040,0.931,1111122 
TCOON,ioos:station:TCOON:006:1,2014-06-01T08:00:00Z,27.8217,-97.2040,0.914,1111122 
TCOON,ioos:station:TCOON:006:1,2014-06-01T09:00:00Z,27.8217,-97.2040,0.92,1111122 
TCOON,ioos:station:TCOON:006:1,2014-06-01T10:00:00Z,27.8217,-97.2040,0.93,1111122 
TCOON,ioos:station:TCOON:006:1,2014-06-01T11:00:00Z,27.8217,-97.2040,0.957,1111122 
TCOON,ioos:station:TCOON:006:1,2014-06-01T12:00:00Z,27.8217,-97.2040,0.985,1111122 
TCOON,ioos:station:TCOON:006:1,2014-06-01T13:00:00Z,27.8217,-97.2040,1.006,1111122 
TCOON,ioos:station:TCOON:006:1,2014-06-01T14:00:00Z,27.8217,-97.2040,1.032,1111122 
TCOON,ioos:station:TCOON:006:1,2014-06-01T15:00:00Z,27.8217,-97.2040,1.052,1111122 
TCOON,ioos:station:TCOON:006:1,2014-06-01T16:00:00Z,27.8217,-97.2040,1.073,1111122 
TCOON,ioos:station:TCOON:006:1,2014-06-01T17:00:00Z,27.8217,-97.2040,1.092,1111122 
TCOON,ioos:station:TCOON:006:1,2014-06-01T18:00:00Z,27.8217,-97.2040,1.109,1111122 
TCOON,ioos:station:TCOON:006:1,2014-06-01T19:00:00Z,27.8217,-97.2040,1.121,1111122 
TCOON,ioos:station:TCOON:006:1,2014-06-01T20:00:00Z,27.8217,-97.2040,1.129,1111122 
TCOON,ioos:station:TCOON:006:1,2014-06-01T21:00:00Z,27.8217,-97.2040,1.137,1111122 
TCOON,ioos:station:TCOON:006:1,2014-06-01T22:00:00Z,27.8217,-97.2040,1.136,1111122 
TCOON,ioos:station:TCOON:006:1,2014-06-01T23:00:00Z,27.8217,-97.2040,1.138,1111122 
TCOON,ioos:station:TCOON:006:1,2014-06-01T23:54:00Z,27.8217,-97.2040,1.13,1111122 
TCOON,ioos:station:TCOON:006:1,2014-06-02T01:00:00Z,27.8217,-97.2040,1.121,1111122 
TCOON,ioos:station:TCOON:006:1,2014-06-02T02:00:00Z,27.8217,-97.2040,1.118,1111122 
TCOON,ioos:station:TCOON:006:1,2014-06-02T03:00:00Z,27.8217,-97.2040,1.099,1111122 
TCOON,ioos:station:TCOON:006:1,2014-06-02T04:00:00Z,27.8217,-97.2040,1.08,1111122 
TCOON,ioos:station:TCOON:006:1,2014-06-02T05:00:00Z,27.8217,-97.2040,1.061,1111122 
TCOON,ioos:station:TCOON:006:1,2014-06-02T06:36:00Z,27.8217,-97.2040,1.02,1111122 
TCOON,ioos:station:TCOON:006:1,2014-06-02T07:00:00Z,27.8217,-97.2040,1.015,1111122 
TCOON,ioos:station:TCOON:006:1,2014-06-02T08:00:00Z,27.8217,-97.2040,1.007,1111122 
TCOON,ioos:station:TCOON:006:1,2014-06-02T09:00:00Z,27.8217,-97.2040,1.02,1111122 
TCOON,ioos:station:TCOON:006:1,2014-06-02T10:00:00Z,27.8217,-97.2040,0.987,1111122 
TCOON,ioos:station:TCOON:006:1,2014-06-02T11:00:00Z,27.8217,-97.2040,1.014,1111122 
TCOON,ioos:station:TCOON:006:1,2014-06-02T12:00:00Z,27.8217,-97.2040,1.043,1111122 
TCOON,ioos:station:TCOON:006:1,2014-06-02T12:54:00Z,27.8217,-97.2040,1.065,1111122 
TCOON,ioos:station:TCOON:006:1,2014-06-02T14:00:00Z,27.8217,-97.2040,1.111,1111122 
TCOON,ioos:station:TCOON:006:1,2014-06-02T15:00:00Z,27.8217,-97.2040,1.1,1111122 
TCOON,ioos:station:TCOON:006:1,2014-06-02T16:00:00Z,27.8217,-97.2040,1.129,1111122 
TCOON,ioos:station:TCOON:006:1,2014-06-02T17:00:00Z,27.8217,-97.2040,1.144,1111122 
TCOON,ioos:station:TCOON:006:1,2014-06-02T18:00:00Z,27.8217,-97.2040,1.162,1111122 
TCOON,ioos:station:TCOON:006:1,2014-06-02T19:00:00Z,27.8217,-97.2040,1.17,1111122 
TCOON,ioos:station:TCOON:006:1,2014-06-02T20:00:00Z,27.8217,-97.2040,1.181,1111122 
TCOON,ioos:station:TCOON:006:1,2014-06-02T21:00:00Z,27.8217,-97.2040,1.188,1111122 
TCOON,ioos:station:TCOON:006:1,2014-06-02T22:00:00Z,27.8217,-97.2040,1.187,1111122 
TCOON,ioos:station:TCOON:006:1,2014-06-02T23:00:00Z,27.8217,-97.2040,1.188,1111122 
TCOON,ioos:station:TCOON:006:1,2014-06-02T23:54:00Z,27.8217,-97.2040,1.18,1111122 
TCOON,ioos:station:TCOON:006:1,2014-06-03T01:00:00Z,27.8217,-97.2040,1.175,1111122 
TCOON,ioos:station:TCOON:006:1,2014-06-03T02:00:00Z,27.8217,-97.2040,1.166,1111122 
TCOON,ioos:station:TCOON:006:1,2014-06-03T03:00:00Z,27.8217,-97.2040,1.152,1111122 
TCOON,ioos:station:TCOON:006:1,2014-06-03T04:00:00Z,27.8217,-97.2040,1.134,1111122 
TCOON,ioos:station:TCOON:006:1,2014-06-03T05:00:00Z,27.8217,-97.2040,1.11,1111122 
TCOON,ioos:station:TCOON:006:1,2014-06-03T06:24:00Z,27.8217,-97.2040,1.083,1111122 
TCOON,ioos:station:TCOON:006:1,2014-06-03T07:00:00Z,27.8217,-97.2040,1.072,1111122 
TCOON,ioos:station:TCOON:006:1,2014-06-03T08:00:00Z,27.8217,-97.2040,1.062,1111122 
TCOON,ioos:station:TCOON:006:1,2014-06-03T09:00:00Z,27.8217,-97.2040,1.052,1111122 
TCOON,ioos:station:TCOON:006:1,2014-06-03T10:00:00Z,27.8217,-97.2040,1.046,1111122 
TCOON,ioos:station:TCOON:006:1,2014-06-03T11:00:00Z,27.8217,-97.2040,1.051,1111122 
TCOON,ioos:station:TCOON:006:1,2014-06-03T12:00:00Z,27.8217,-97.2040,1.068,1111122 
TCOON,ioos:station:TCOON:006:1,2014-06-03T13:00:00Z,27.8217,-97.2040,1.093,1111122 
TCOON,ioos:station:TCOON:006:1,2014-06-03T14:00:00Z,27.8217,-97.2040,1.112,1111122 
TCOON,ioos:station:TCOON:006:1,2014-06-03T15:00:00Z,27.8217,-97.2040,1.129,1111122 
TCOON,ioos:station:TCOON:006:1,2014-06-03T16:00:00Z,27.8217,-97.2040,1.147,1111122 
TCOON,ioos:station:TCOON:006:1,2014-06-03T17:00:00Z,27.8217,-97.2040,1.162,1111122 
TCOON,ioos:station:TCOON:006:1,2014-06-03T18:00:00Z,27.8217,-97.2040,1.172,1111122 
TCOON,ioos:station:TCOON:006:1,2014-06-03T19:00:00Z,27.8217,-97.2040,1.187,1111122 
TCOON,ioos:station:TCOON:006:1,2014-06-03T20:00:00Z,27.8217,-97.2040,1.204,1111122 
TCOON,ioos:station:TCOON:006:1,2014-06-03T21:00:00Z,27.8217,-97.2040,1.19,1111122 
TCOON,ioos:station:TCOON:006:1,2014-06-03T22:00:00Z,27.8217,-97.2040,1.207,1111122 
TCOON,ioos:station:TCOON:006:1,2014-06-03T23:00:00Z,27.8217,-97.2040,1.195,1111122 
TCOON,ioos:station:TCOON:006:1,2014-06-04T00:00:00Z,27.8217,-97.2040,1.182,1111122 
TCOON,ioos:station:TCOON:006:1,2014-06-04T01:00:00Z,27.8217,-97.2040,1.18,1111122 
TCOON,ioos:station:TCOON:006:1,2014-06-04T01:54:00Z,27.8217,-97.2040,1.165,1111122 
TCOON,ioos:station:TCOON:006:1,2014-06-04T03:00:00Z,27.8217,-97.2040,1.15,1111122 
TCOON,ioos:station:TCOON:006:1,2014-06-04T04:00:00Z,27.8217,-97.2040,1.139,1111122 
TCOON,ioos:station:TCOON:006:1,2014-06-04T05:00:00Z,27.8217,-97.2040,1.121,1111122 
TCOON,ioos:station:TCOON:006:1,2014-06-04T06:00:00Z,27.8217,-97.2040,1.104,1111122 
TCOON,ioos:station:TCOON:006:1,2014-06-04T07:00:00Z,27.8217,-97.2040,1.085,1111122 
TCOON,ioos:station:TCOON:006:1,2014-06-04T08:00:00Z,27.8217,-97.2040,1.07,1111122 
TCOON,ioos:station:TCOON:006:1,2014-06-04T09:00:00Z,27.8217,-97.2040,1.06,1111122 
TCOON,ioos:station:TCOON:006:1,2014-06-04T10:00:00Z,27.8217,-97.2040,1.062,1111122 
TCOON,ioos:station:TCOON:006:1,2014-06-04T11:00:00Z,27.8217,-97.2040,1.047,1111122 
TCOON,ioos:station:TCOON:006:1,2014-06-04T12:00:00Z,27.8217,-97.2040,1.061,1111122 
TCOON,ioos:station:TCOON:006:1,2014-06-04T13:00:00Z,27.8217,-97.2040,1.082,1111122 
TCOON,ioos:station:TCOON:006:1,2014-06-04T14:00:00Z,27.8217,-97.2040,1.099,1111122 
TCOON,ioos:station:TCOON:006:1,2014-06-04T15:00:00Z,27.8217,-97.2040,1.052,1111122 
TCOON,ioos:station:TCOON:006:1,2014-06-04T16:00:00Z,27.8217,-97.2040,1.158,1111122 
TCOON,ioos:station:TCOON:006:1,2014-06-04T17:00:00Z,27.8217,-97.2040,1.147,1111122 
TCOON,ioos:station:TCOON:006:1,2014-06-04T18:00:00Z,27.8217,-97.2040,1.163,1111122 
TCOON,ioos:station:TCOON:006:1,2014-06-04T19:00:00Z,27.8217,-97.2040,1.17,1111122 
TCOON,ioos:station:TCOON:006:1,2014-06-04T20:00:00Z,27.8217,-97.2040,1.169,1111122 
TCOON,ioos:station:TCOON:006:1,2014-06-04T21:00:00Z,27.8217,-97.2040,1.164,1111122 
TCOON,ioos:station:TCOON:006:1,2014-06-04T22:00:00Z,27.8217,-97.2040,1.159,1111122 
TCOON,ioos:station:TCOON:006:1,2014-06-04T23:00:00Z,27.8217,-97.2040,1.151,1111122 
TCOON,ioos:station:TCOON:006:1,2014-06-05T00:00:00Z,27.8217,-97.2040,1.141,1111122 
TCOON,ioos:station:TCOON:006:1,2014-06-05T00:54:00Z,27.8217,-97.2040,1.128,1111122 
TCOON,ioos:station:TCOON:006:1,2014-06-05T01:54:00Z,27.8217,-97.2040,1.114,1111122 
TCOON,ioos:station:TCOON:006:1,2014-06-05T03:00:00Z,27.8217,-97.2040,1.112,1111122 
TCOON,ioos:station:TCOON:006:1,2014-06-05T04:00:00Z,27.8217,-97.2040,1.102,1111122 
TCOON,ioos:station:TCOON:006:1,2014-06-05T05:00:00Z,27.8217,-97.2040,1.097,1111122 
TCOON,ioos:station:TCOON:006:1,2014-06-05T06:18:00Z,27.8217,-97.2040,1.088,1111122 
TCOON,ioos:station:TCOON:006:1,2014-06-05T06:54:00Z,27.8217,-97.2040,1.083,1111122 
TCOON,ioos:station:TCOON:006:1,2014-06-05T08:00:00Z,27.8217,-97.2040,1.066,1111122 
TCOON,ioos:station:TCOON:006:1,2014-06-05T09:00:00Z,27.8217,-97.2040,1.053,1111122 
TCOON,ioos:station:TCOON:006:1,2014-06-05T10:00:00Z,27.8217,-97.2040,1.053,1111122 
TCOON,ioos:station:TCOON:006:1,2014-06-05T11:00:00Z,27.8217,-97.2040,1.047,1111122 
TCOON,ioos:station:TCOON:006:1,2014-06-05T12:00:00Z,27.8217,-97.2040,1.024,1111122 
TCOON,ioos:station:TCOON:006:1,2014-06-05T13:00:00Z,27.8217,-97.2040,1.062,1111122 
TCOON,ioos:station:TCOON:006:1,2014-06-05T14:00:00Z,27.8217,-97.2040,1.079,1111122 
TCOON,ioos:station:TCOON:006:1,2014-06-05T15:00:00Z,27.8217,-97.2040,1.099,1111122 
TCOON,ioos:station:TCOON:006:1,2014-06-05T16:00:00Z,27.8217,-97.2040,1.11,1111122 
TCOON,ioos:station:TCOON:006:1,2014-06-05T17:00:00Z,27.8217,-97.2040,1.133,1111122 
TCOON,ioos:station:TCOON:006:1,2014-06-05T18:00:00Z,27.8217,-97.2040,1.142,1111122 
TCOON,ioos:station:TCOON:006:1,2014-06-05T19:00:00Z,27.8217,-97.2040,1.146,1111122 
TCOON,ioos:station:TCOON:006:1,2014-06-05T20:00:00Z,27.8217,-97.2040,1.158,1111122 
TCOON,ioos:station:TCOON:006:1,2014-06-05T21:00:00Z,27.8217,-97.2040,1.148,1111122 
TCOON,ioos:station:TCOON:006:1,2014-06-05T22:00:00Z,27.8217,-97.2040,1.141,1111122 
TCOON,ioos:station:TCOON:006:1,2014-06-05T23:00:00Z,27.8217,-97.2040,1.148,1111122 
TCOON,ioos:station:TCOON:006:1,2014-06-06T00:00:00Z,27.8217,-97.2040,1.12,1111122 
TCOON,ioos:station:TCOON:006:1,2014-06-06T01:00:00Z,27.8217,-97.2040,1.106,1111122 
TCOON,ioos:station:TCOON:006:1,2014-06-06T02:00:00Z,27.8217,-97.2040,1.064,1111122 
TCOON,ioos:station:TCOON:006:1,2014-06-06T03:00:00Z,27.8217,-97.2040,1.098,1111122 
TCOON,ioos:station:TCOON:006:1,2014-06-06T04:00:00Z,27.8217,-97.2040,1.091,1111122 
TCOON,ioos:station:TCOON:006:1,2014-06-06T05:00:00Z,27.8217,-97.2040,1.094,1111122 
TCOON,ioos:station:TCOON:006:1,2014-06-06T06:24:00Z,27.8217,-97.2040,1.084,1111122 
TCOON,ioos:station:TCOON:006:1,2014-06-06T06:54:00Z,27.8217,-97.2040,1.083,1111122 
TCOON,ioos:station:TCOON:006:1,2014-06-06T08:00:00Z,27.8217,-97.2040,1.071,1111122 
TCOON,ioos:station:TCOON:006:1,2014-06-06T09:00:00Z,27.8217,-97.2040,1.063,1111122 
TCOON,ioos:station:TCOON:006:1,2014-06-06T10:00:00Z,27.8217,-97.2040,1.055,1111122 
TCOON,ioos:station:TCOON:006:1,2014-06-06T11:00:00Z,27.8217,-97.2040,1.048,1111122 
TCOON,ioos:station:TCOON:006:1,2014-06-06T12:00:00Z,27.8217,-97.2040,1.07,1111122 
TCOON,ioos:station:TCOON:006:1,2014-06-06T13:00:00Z,27.8217,-97.2040,1.048,1111122 
TCOON,ioos:station:TCOON:006:1,2014-06-06T14:00:00Z,27.8217,-97.2040,1.052,1111122 
TCOON,ioos:station:TCOON:006:1,2014-06-06T15:00:00Z,27.8217,-97.2040,1.069,1111122 
TCOON,ioos:station:TCOON:006:1,2014-06-06T16:00:00Z,27.8217,-97.2040,1.077,1111122 
TCOON,ioos:station:TCOON:006:1,2014-06-06T17:00:00Z,27.8217,-97.2040,1.096,1111122 
TCOON,ioos:station:TCOON:006:1,2014-06-06T18:00:00Z,27.8217,-97.2040,1.066,1111122 
TCOON,ioos:station:TCOON:006:1,2014-06-06T19:00:00Z,27.8217,-97.2040,1.121,1111122 
TCOON,ioos:station:TCOON:006:1,2014-06-06T20:00:00Z,27.8217,-97.2040,1.102,1111122 
TCOON,ioos:station:TCOON:006:1,2014-06-06T21:00:00Z,27.8217,-97.2040,1.1,1111122 
TCOON,ioos:station:TCOON:006:1,2014-06-06T22:00:00Z,27.8217,-97.2040,1.079,1111122 
TCOON,ioos:station:TCOON:006:1,2014-06-06T23:00:00Z,27.8217,-97.2040,1.061,1111122 
TCOON,ioos:station:TCOON:006:1,2014-06-07T00:00:00Z,27.8217,-97.2040,1.046,1111122 
TCOON,ioos:station:TCOON:006:1,2014-06-07T01:00:00Z,27.8217,-97.2040,1.041,1111122 
TCOON,ioos:station:TCOON:006:1,2014-06-07T02:00:00Z,27.8217,-97.2040,1.025,1111122 
TCOON,ioos:station:TCOON:006:1,2014-06-07T03:00:00Z,27.8217,-97.2040,1.022,1111122 
TCOON,ioos:station:TCOON:006:1,2014-06-07T04:00:00Z,27.8217,-97.2040,1.02,1111122 
TCOON,ioos:station:TCOON:006:1,2014-06-07T05:00:00Z,27.8217,-97.2040,1.02,1111122 
TCOON,ioos:station:TCOON:006:1,2014-06-07T06:00:00Z,27.8217,-97.2040,1.038,1111122 
TCOON,ioos:station:TCOON:006:1,2014-06-07T07:00:00Z,27.8217,-97.2040,1.034,1111122 
TCOON,ioos:station:TCOON:006:1,2014-06-07T08:00:00Z,27.8217,-97.2040,1.031,1111122 
TCOON,ioos:station:TCOON:006:1,2014-06-07T09:00:00Z,27.8217,-97.2040,1.03,1111122 
TCOON,ioos:station:TCOON:006:1,2014-06-07T10:00:00Z,27.8217,-97.2040,1.032,1111122 
TCOON,ioos:station:TCOON:006:1,2014-06-07T11:00:00Z,27.8217,-97.2040,1.033,1111122 
TCOON,ioos:station:TCOON:006:1,2014-06-07T11:54:00Z,27.8217,-97.2040,1.035,1111122 
TCOON,ioos:station:TCOON:006:1,2014-06-07T13:00:00Z,27.8217,-97.2040,1.041,1111122 
TCOON,ioos:station:TCOON:006:1,2014-06-07T14:00:00Z,27.8217,-97.2040,1.054,1111122 
TCOON,ioos:station:TCOON:006:1,2014-06-07T15:06:00Z,27.8217,-97.2040,1.062,1111122 
TCOON,ioos:station:TCOON:006:1,2014-06-07T16:00:00Z,27.8217,-97.2040,1.069,1111122 
TCOON,ioos:station:TCOON:006:1,2014-06-07T17:00:00Z,27.8217,-97.2040,1.079,1111122 
TCOON,ioos:station:TCOON:006:1,2014-06-07T18:00:00Z,27.8217,-97.2040,1.072,1111122 
TCOON,ioos:station:TCOON:006:1,2014-06-07T19:00:00Z,27.8217,-97.2040,1.082,1111122 
TCOON,ioos:station:TCOON:006:1,2014-06-07T20:00:00Z,27.8217,-97.2040,1.075,1111122 
TCOON,ioos:station:TCOON:006:1,2014-06-07T21:00:00Z,27.8217,-97.2040,1.058,1111122 
TCOON,ioos:station:TCOON:006:1,2014-06-07T21:54:00Z,27.8217,-97.2040,1.037,1111122 
TCOON,ioos:station:TCOON:006:1,2014-06-07T23:00:00Z,27.8217,-97.2040,1.024,1111122 
TCOON,ioos:station:TCOON:006:1,2014-06-08T00:00:00Z,27.8217,-97.2040,0.998,1111122 
TCOON,ioos:station:TCOON:006:1,2014-06-08T01:00:00Z,27.8217,-97.2040,0.988,1111122 
TCOON,ioos:station:TCOON:006:1,2014-06-08T01:54:00Z,27.8217,-97.2040,0.972,1111122 
TCOON,ioos:station:TCOON:006:1,2014-06-08T03:00:00Z,27.8217,-97.2040,0.971,1111122 
TCOON,ioos:station:TCOON:006:1,2014-06-08T04:12:00Z,27.8217,-97.2040,0.976,1111122 
TCOON,ioos:station:TCOON:006:1,2014-06-08T05:00:00Z,27.8217,-97.2040,0.98,1111122 
TCOON,ioos:station:TCOON:006:1,2014-06-08T06:24:00Z,27.8217,-97.2040,0.999,1111122 
TCOON,ioos:station:TCOON:006:1,2014-06-08T07:00:00Z,27.8217,-97.2040,1.006,1111122 
TCOON,ioos:station:TCOON:006:1,2014-06-08T08:00:00Z,27.8217,-97.2040,1.017,1111122 
TCOON,ioos:station:TCOON:006:1,2014-06-08T09:00:00Z,27.8217,-97.2040,1.009,1111122 
TCOON,ioos:station:TCOON:006:1,2014-06-08T10:00:00Z,27.8217,-97.2040,1.043,1111122 
TCOON,ioos:station:TCOON:006:1,2014-06-08T11:00:00Z,27.8217,-97.2040,1.07,1111122 
TCOON,ioos:station:TCOON:006:1,2014-06-08T12:00:00Z,27.8217,-97.2040,1.064,1111122 
TCOON,ioos:station:TCOON:006:1,2014-06-08T13:00:00Z,27.8217,-97.2040,1.069,1111122 
TCOON,ioos:station:TCOON:006:1,2014-06-08T14:00:00Z,27.8217,-97.2040,1.083,1111122 
TCOON,ioos:station:TCOON:006:1,2014-06-08T15:00:00Z,27.8217,-97.2040,1.092,1111122 
TCOON,ioos:station:TCOON:006:1,2014-06-08T16:00:00Z,27.8217,-97.2040,1.041,1111122 
TCOON,ioos:station:TCOON:006:1,2014-06-08T17:00:00Z,27.8217,-97.2040,1.096,1111122 
TCOON,ioos:station:TCOON:006:1,2014-06-08T18:00:00Z,27.8217,-97.2040,1.104,1111122 
TCOON,ioos:station:TCOON:006:1,2014-06-08T19:00:00Z,27.8217,-97.2040,1.087,1111122 
TCOON,ioos:station:TCOON:006:1,2014-06-08T20:00:00Z,27.8217,-97.2040,1.068,1111122 
TCOON,ioos:station:TCOON:006:1,2014-06-08T21:00:00Z,27.8217,-97.2040,1.057,1111122 
TCOON,ioos:station:TCOON:006:1,2014-06-08T22:00:00Z,27.8217,-97.2040,1.032,1111122 
TCOON,ioos:station:TCOON:006:1,2014-06-08T23:00:00Z,27.8217,-97.2040,1.013,1111122 
TCOON,ioos:station:TCOON:006:1,2014-06-09T00:00:00Z,27.8217,-97.2040,0.986,1111122 
TCOON,ioos:station:TCOON:006:1,2014-06-09T01:00:00Z,27.8217,-97.2040,0.974,1111122 
TCOON,ioos:station:TCOON:006:1,2014-06-09T02:00:00Z,27.8217,-97.2040,0.958,1111122 
TCOON,ioos:station:TCOON:006:1,2014-06-09T03:00:00Z,27.8217,-97.2040,0.978,1111122 
TCOON,ioos:station:TCOON:006:1,2014-06-09T04:00:00Z,27.8217,-97.2040,0.941,1111122 
TCOON,ioos:station:TCOON:006:1,2014-06-09T05:00:00Z,27.8217,-97.2040,0.937,1111122 
TCOON,ioos:station:TCOON:006:1,2014-06-09T06:30:00Z,27.8217,-97.2040,0.965,1111122 
TCOON,ioos:station:TCOON:006:1,2014-06-09T07:00:00Z,27.8217,-97.2040,0.975,1111122 
TCOON,ioos:station:TCOON:006:1,2014-06-09T08:00:00Z,27.8217,-97.2040,0.993,1111122 
TCOON,ioos:station:TCOON:006:1,2014-06-09T09:00:00Z,27.8217,-97.2040,1.026,1111122 
TCOON,ioos:station:TCOON:006:1,2014-06-09T10:00:00Z,27.8217,-97.2040,1.036,1111122 
TCOON,ioos:station:TCOON:006:1,2014-06-09T11:00:00Z,27.8217,-97.2040,1.049,1111122 
TCOON,ioos:station:TCOON:006:1,2014-06-09T12:00:00Z,27.8217,-97.2040,1.059,1111122 
TCOON,ioos:station:TCOON:006:1,2014-06-09T12:54:00Z,27.8217,-97.2040,1.066,1111122 
TCOON,ioos:station:TCOON:006:1,2014-06-09T14:00:00Z,27.8217,-97.2040,1.071,1111122 
TCOON,ioos:station:TCOON:006:1,2014-06-09T15:00:00Z,27.8217,-97.2040,1.068,1111122 
TCOON,ioos:station:TCOON:006:1,2014-06-09T16:00:00Z,27.8217,-97.2040,1.075,1111122 
TCOON,ioos:station:TCOON:006:1,2014-06-09T17:00:00Z,27.8217,-97.2040,1.071,1111122 
TCOON,ioos:station:TCOON:006:1,2014-06-09T18:00:00Z,27.8217,-97.2040,1.077,1111122 
TCOON,ioos:station:TCOON:006:1,2014-06-09T19:00:00Z,27.8217,-97.2040,1.057,1111122 
TCOON,ioos:station:TCOON:006:1,2014-06-09T19:54:00Z,27.8217,-97.2040,1.041,1111122 
TCOON,ioos:station:TCOON:006:1,2014-06-09T21:00:00Z,27.8217,-97.2040,1.027,1111122 
TCOON,ioos:station:TCOON:006:1,2014-06-09T22:00:00Z,27.8217,-97.2040,1.022,1111122 
TCOON,ioos:station:TCOON:006:1,2014-06-09T23:00:00Z,27.8217,-97.2040,0.987,1111122 
TCOON,ioos:station:TCOON:006:1,2014-06-10T00:00:00Z,27.8217,-97.2040,0.959,1111122 
TCOON,ioos:station:TCOON:006:1,2014-06-10T01:00:00Z,27.8217,-97.2040,0.937,1111122 
TCOON,ioos:station:TCOON:006:1,2014-06-10T02:00:00Z,27.8217,-97.2040,0.924,1111122 
TCOON,ioos:station:TCOON:006:1,2014-06-10T03:00:00Z,27.8217,-97.2040,0.907,1111122 
TCOON,ioos:station:TCOON:006:1,2014-06-10T04:00:00Z,27.8217,-97.2040,0.904,1111122 
TCOON,ioos:station:TCOON:006:1,2014-06-10T05:00:00Z,27.8217,-97.2040,0.904,1111122 
TCOON,ioos:station:TCOON:006:1,2014-06-10T06:24:00Z,27.8217,-97.2040,0.925,1111122 
TCOON,ioos:station:TCOON:006:1,2014-06-10T07:00:00Z,27.8217,-97.2040,0.931,1111122 
TCOON,ioos:station:TCOON:006:1,2014-06-10T08:00:00Z,27.8217,-97.2040,0.95,1111122 
TCOON,ioos:station:TCOON:006:1,2014-06-10T09:00:00Z,27.8217,-97.2040,0.975,1111122 
TCOON,ioos:station:TCOON:006:1,2014-06-10T10:00:00Z,27.8217,-97.2040,1.0,1111122 
TCOON,ioos:station:TCOON:006:1,2014-06-10T11:00:00Z,27.8217,-97.2040,1.007,1111122 
TCOON,ioos:station:TCOON:006:1,2014-06-10T12:00:00Z,27.8217,-97.2040,1.024,1111122 
TCOON,ioos:station:TCOON:006:1,2014-06-10T13:00:00Z,27.8217,-97.2040,1.042,1111122 
TCOON,ioos:station:TCOON:006:1,2014-06-10T14:00:00Z,27.8217,-97.2040,1.048,1111122 
TCOON,ioos:station:TCOON:006:1,2014-06-10T15:00:00Z,27.8217,-97.2040,1.031,1111122 
TCOON,ioos:station:TCOON:006:1,2014-06-10T16:00:00Z,27.8217,-97.2040,1.059,1111122 
TCOON,ioos:station:TCOON:006:1,2014-06-10T17:00:00Z,27.8217,-97.2040,1.058,1111122 
TCOON,ioos:station:TCOON:006:1,2014-06-10T18:00:00Z,27.8217,-97.2040,1.054,1111122 
TCOON,ioos:station:TCOON:006:1,2014-06-10T19:00:00Z,27.8217,-97.2040,1.047,1111122 
TCOON,ioos:station:TCOON:006:1,2014-06-10T20:00:00Z,27.8217,-97.2040,1.032,1111122 
TCOON,ioos:station:TCOON:006:1,2014-06-10T21:00:00Z,27.8217,-97.2040,1.012,1111122 
TCOON,ioos:station:TCOON:006:1,2014-06-10T22:00:00Z,27.8217,-97.2040,0.989,1111122 
TCOON,ioos:station:TCOON:006:1,2014-06-10T23:00:00Z,27.8217,-97.2040,0.954,1111122 
TCOON,ioos:station:TCOON:006:1,2014-06-11T00:00:00Z,27.8217,-97.2040,0.928,1111122 
TCOON,ioos:station:TCOON:006:1,2014-06-11T01:00:00Z,27.8217,-97.2040,0.899,1111122 
TCOON,ioos:station:TCOON:006:1,2014-06-11T02:00:00Z,27.8217,-97.2040,0.877,1111122 
TCOON,ioos:station:TCOON:006:1,2014-06-11T03:00:00Z,27.8217,-97.2040,0.851,1111122 
TCOON,ioos:station:TCOON:006:1,2014-06-11T04:00:00Z,27.8217,-97.2040,0.831,1111122 
TCOON,ioos:station:TCOON:006:1,2014-06-11T04:54:00Z,27.8217,-97.2040,0.831,1111122 
TCOON,ioos:station:TCOON:006:1,2014-06-11T06:30:00Z,27.8217,-97.2040,0.839,1111122 
TCOON,ioos:station:TCOON:006:1,2014-06-11T07:00:00Z,27.8217,-97.2040,0.846,1111122 
TCOON,ioos:station:TCOON:006:1,2014-06-11T08:00:00Z,27.8217,-97.2040,0.877,1111122 
TCOON,ioos:station:TCOON:006:1,2014-06-11T09:00:00Z,27.8217,-97.2040,0.896,1111122 
TCOON,ioos:station:TCOON:006:1,2014-06-11T10:00:00Z,27.8217,-97.2040,0.916,1111122 
TCOON,ioos:station:TCOON:006:1,2014-06-11T11:00:00Z,27.8217,-97.2040,0.933,1111122 
TCOON,ioos:station:TCOON:006:1,2014-06-11T12:00:00Z,27.8217,-97.2040,0.956,1111122 
TCOON,ioos:station:TCOON:006:1,2014-06-11T13:00:00Z,27.8217,-97.2040,0.972,1111122 
TCOON,ioos:station:TCOON:006:1,2014-06-11T14:00:00Z,27.8217,-97.2040,0.976,1111122 
TCOON,ioos:station:TCOON:006:1,2014-06-11T15:00:00Z,27.8217,-97.2040,1.001,1111122 
TCOON,ioos:station:TCOON:006:1,2014-06-11T16:00:00Z,27.8217,-97.2040,0.993,1111122 
TCOON,ioos:station:TCOON:006:1,2014-06-11T17:00:00Z,27.8217,-97.2040,0.997,1111122 
TCOON,ioos:station:TCOON:006:1,2014-06-11T18:00:00Z,27.8217,-97.2040,1.003,1111122 
TCOON,ioos:station:TCOON:006:1,2014-06-11T19:00:00Z,27.8217,-97.2040,0.997,1111122 
TCOON,ioos:station:TCOON:006:1,2014-06-11T19:54:00Z,27.8217,-97.2040,0.989,1111122 
TCOON,ioos:station:TCOON:006:1,2014-06-11T20:54:00Z,27.8217,-97.2040,0.973,1111122 
TCOON,ioos:station:TCOON:006:1,2014-06-11T22:00:00Z,27.8217,-97.2040,0.944,1111122 
TCOON,ioos:station:TCOON:006:1,2014-06-11T23:00:00Z,27.8217,-97.2040,0.89,1111122 
TCOON,ioos:station:TCOON:006:1,2014-06-12T00:00:00Z,27.8217,-97.2040,0.895,1111122 
TCOON,ioos:station:TCOON:006:1,2014-06-12T01:00:00Z,27.8217,-97.2040,0.859,1111122 
TCOON,ioos:station:TCOON:006:1,2014-06-12T02:00:00Z,27.8217,-97.2040,0.834,1111122 
TCOON,ioos:station:TCOON:006:1,2014-06-12T03:00:00Z,27.8217,-97.2040,0.814,1111122 
TCOON,ioos:station:TCOON:006:1,2014-06-12T04:00:00Z,27.8217,-97.2040,0.801,1111122 
TCOON,ioos:station:TCOON:006:1,2014-06-12T05:00:00Z,27.8217,-97.2040,0.792,1111122 
TCOON,ioos:station:TCOON:006:1,2014-06-12T06:30:00Z,27.8217,-97.2040,0.804,1111122 
TCOON,ioos:station:TCOON:006:1,2014-06-12T07:00:00Z,27.8217,-97.2040,0.806,1111122 
TCOON,ioos:station:TCOON:006:1,2014-06-12T08:00:00Z,27.8217,-97.2040,0.838,1111122 
TCOON,ioos:station:TCOON:006:1,2014-06-12T09:00:00Z,27.8217,-97.2040,0.883,1111122 
TCOON,ioos:station:TCOON:006:1,2014-06-12T10:00:00Z,27.8217,-97.2040,0.902,1111122 
TCOON,ioos:station:TCOON:006:1,2014-06-12T11:00:00Z,27.8217,-97.2040,0.932,1111122 
TCOON,ioos:station:TCOON:006:1,2014-06-12T12:00:00Z,27.8217,-97.2040,0.953,1111122 
TCOON,ioos:station:TCOON:006:1,2014-06-12T13:00:00Z,27.8217,-97.2040,0.992,1111122 
TCOON,ioos:station:TCOON:006:1,2014-06-12T14:00:00Z,27.8217,-97.2040,0.995,1111122 
TCOON,ioos:station:TCOON:006:1,2014-06-12T15:00:00Z,27.8217,-97.2040,1.009,1111122 
TCOON,ioos:station:TCOON:006:1,2014-06-12T16:00:00Z,27.8217,-97.2040,1.03,1111122 
TCOON,ioos:station:TCOON:006:1,2014-06-12T17:00:00Z,27.8217,-97.2040,1.042,1111122 
TCOON,ioos:station:TCOON:006:1,2014-06-12T18:00:00Z,27.8217,-97.2040,1.036,1111122 
TCOON,ioos:station:TCOON:006:1,2014-06-12T19:00:00Z,27.8217,-97.2040,1.037,1111122 
TCOON,ioos:station:TCOON:006:1,2014-06-12T20:00:00Z,27.8217,-97.2040,1.042,1111122 